Location: Unspecified
(45.4816°N, 0.0000°E)
Time: 06:01:50
(UTC+00:00)

Vanguard 2 Rocket - Visible Passes

Search period start: 05 April 2026 00:00
Search period end: 15 April 2026 00:00
Orbit: 554 x 3286 km, 32.9° (Epoch: 29 March)

Date Brightness Start Highest point End Pass type
(mag) Time Alt. Az. Time Alt. Az. Time Alt. Az.
5 Apr 8.7 03:30:17 12° S 03:30:17 12° S 03:31:34 10° SSE visible
10 Apr 9.0 20:57:59 10° SSW 20:59:06 12° SSW 20:59:06 12° SSW visible
11 Apr 8.8 19:53:03 10° S 19:56:36 13° SSE 19:58:15 12° SSE visible
12 Apr 8.6 20:58:57 10° SW 21:02:44 18° S 21:02:44 18° S visible
13 Apr 8.5 19:53:11 10° SSW 19:59:11 19° S 20:01:47 16° SE visible
13 Apr 9.2 22:06:29 10° SW 22:07:09 12° SW 22:07:09 12° SW visible
14 Apr 8.3 21:00:23 10° SW 21:06:10 24° S 21:06:10 24° S visible
